User: anonymous   Login
Location: Unspecified
(0.0000°N, 0.0000°E)
Time: 00:13:16
(UTC+00:00)
Language:

Kopernikus 2 - Orbit

View from above orbital plane
View from above orbital plane
View from above satellite
View from above satellite

Ground track
Ground track

The orbit data is extracted from the following two-line orbital elements,

1 20706U 90063B   18112.78140479 -.00000076  00000-0  00000+0 0  9999
2 20706  13.2179  27.1272 0007739 287.3961 263.5148  0.99543321 93279
Epoch (UTC): 22 April 2018 18:45:13
Eccentricity: 0.0007739
inclination: 13.2179°
perigee height: 35959 km
apogee height: 36024 km
right ascension of ascending node: 27.1272°
argument of perigee: 287.3961°
revolutions per day: 0.99543321
mean anomaly at epoch: 263.5148°
orbit number at epoch: 9327

The dashed part of the orbit path shows where the satellite is in the earth's shadow,  

DLR